South Lake Tahoe, CA

1:40 AM PST on January 18, 2017 (GMT -0800)
Lake Tahoe

Weather History for KTVL - April, 2013

Change the Weather History Date:

Thursday, April 11, 2013

  Actual Average Record
Temperature  
Mean Temperature 47 °F 39 °F  
Max Temperature 59 °F 53 °F 75 °F (1988)
Min Temperature 34 °F 26 °F 12 °F (1999)
Degree Days  
Heating Degree Days 18 26  
Month to date heating degree days 243 292  
Since 1 July heating degree days 6025 6444  
Cooling Degree Days 0 0  
Month to date cooling degree days 0 0  
Year to date cooling degree days 0 0  
Moisture  
Dew Point 33 °F    
Average Humidity 48    
Maximum Humidity 71    
Minimum Humidity 24    
Precipitation  
Precipitation 0.00 in - 1.98 in (1982)
Month to date precipitation 0.35  
Year to date precipitation 2.59  
Sea Level Pressure  
Sea Level Pressure 29.96 in    
Wind  
Wind Speed 3 mph (NE)    
Max Wind Speed 14 mph    
Max Gust Speed 20 mph    
Visibility 10 miles    
Events      
T = Trace of Precipitation, MM = Missing Value Source: NWS Daily Summary

Daily Weather History Graph

Daily Weather History Graph

Search for Another Location

Airport or City:

Trip Planner

Search our weather history database for the weather conditions in past years. The results will help you decide how hot, cold, wet, or windy it might be!

Date:

Astronomy

Apr. 11, 2013 Rise Set
Actual Time 6:28 AM PDT 7:33 PM PDT
Civil Twilight 6:01 AM PDT 8:00 PM PDT
Nautical Twilight 5:29 AM PDT 8:33 PM PDT
Astronomical Twilight 4:55 AM PDT 9:07 PM PDT
Moon 7:04 AM PDT (4/11) 9:11 PM PDT (4/11)
Length of Visible Light 13h 59m
Length of Day
13h 04m
New Moon, 2% of the Moon is Illuminated
Apr 11
New Moon
Apr 18
First Quarter
Apr 25
Full
May 2
Last Quarter
May 9
New

Hourly Weather History & Observations

Time (PDT) Temp. Windchill Dew Point Humidity Pressure Visibility Wind Dir Wind Speed Gust Speed Precip Events Conditions
12:53 AM 45.0 °F - 34.0 °F 65% 30.00 in 10.0 mi Calm Calm - N/A   Mostly Cloudy
1:53 AM 48.0 °F - 36.0 °F 63% 29.96 in 10.0 mi SSW 4.6 mph - N/A   Overcast
2:53 AM 48.0 °F - 36.0 °F 63% 29.92 in 10.0 mi SW 4.6 mph - N/A   Mostly Cloudy
3:53 AM 46.9 °F - 37.0 °F 68% 29.92 in 10.0 mi Calm Calm - N/A   Overcast
4:53 AM 46.9 °F - 37.0 °F 68% 29.91 in 10.0 mi Calm Calm - N/A   Overcast
5:53 AM 46.0 °F - 37.0 °F 71% 29.93 in 10.0 mi Calm Calm - N/A   Overcast
6:32 AM 44.6 °F 41.4 °F 35.6 °F 71% 30.07 in 10.0 mi North 5.8 mph - N/A   Overcast
6:53 AM 44.1 °F 40.8 °F 36.0 °F 73% 29.97 in 10.0 mi Variable 5.8 mph - N/A   Overcast
7:53 AM 44.1 °F - 36.0 °F 73% 29.99 in 10.0 mi Calm Calm - N/A   Overcast
8:34 AM 44.6 °F - 35.6 °F 71% 30.08 in 10.0 mi Calm Calm - N/A   Overcast
8:53 AM 45.0 °F 40.1 °F 34.0 °F 65% 30.00 in 10.0 mi ENE 9.2 mph - N/A   Mostly Cloudy
9:01 AM 44.6 °F 39.7 °F 33.8 °F 66% 30.08 in 10.0 mi East 9.2 mph 18.4 mph N/A   Mostly Cloudy
10:21 AM 50.0 °F - 35.6 °F 58% 30.08 in 10.0 mi Calm Calm - N/A   Mostly Cloudy
10:38 AM 50.0 °F - 35.6 °F 58% 30.08 in 10.0 mi NE 6.9 mph - N/A   Scattered Clouds
10:53 AM 53.1 °F - 36.0 °F 52% 29.98 in 10.0 mi Variable 4.6 mph - N/A   Scattered Clouds
11:53 AM 52.0 °F - 36.0 °F 54% 29.98 in 10.0 mi Variable 3.5 mph - N/A   Clear
12:53 PM 55.0 °F - 36.0 °F 49% 29.95 in 10.0 mi NNE 9.2 mph 18.4 mph N/A   Clear
1:53 PM 57.0 °F - 34.0 °F 42% 29.91 in 10.0 mi Variable 4.6 mph - N/A   Clear
2:53 PM 55.0 °F - 32.0 °F 42% 29.91 in 10.0 mi Variable 5.8 mph 16.1 mph N/A   Clear
3:53 PM 57.0 °F - 28.9 °F 34% 29.89 in 10.0 mi Variable 5.8 mph - N/A   Clear
4:53 PM 59.0 °F - 23.0 °F 25% 29.86 in 10.0 mi NNE 5.8 mph - N/A   Clear
5:53 PM 55.9 °F - 25.0 °F 30% 29.88 in 10.0 mi NNE 5.8 mph - N/A   Clear
6:53 PM 50.0 °F - 32.0 °F 50% 29.90 in 10.0 mi Calm Calm - N/A   Clear
7:53 PM 45.0 °F - 30.0 °F 56% 29.91 in 10.0 mi Calm Calm - N/A   Clear
8:53 PM 45.0 °F - 30.0 °F 56% 29.92 in 10.0 mi Calm Calm - N/A   Clear
9:53 PM 41.0 °F - 30.0 °F 65% 29.95 in 10.0 mi Calm Calm - N/A   Clear
10:53 PM 39.0 °F 36.8 °F 28.9 °F 67% 29.95 in 10.0 mi Variable 3.5 mph - N/A   Clear
11:53 PM 37.0 °F - 28.0 °F 70% 29.95 in 10.0 mi Calm Calm - N/A   Clear